Weather in Rodovoye

Russia / Pskov Oblast     57°22′27″N   27°57′14″E
temp.,
°C
wind,
m/s
gust,
m/s
humid.,
%
clouds,
%
prec.,
mm/h
press.,
hPa
HPBL,
m
6 march, sat
sat600:00−4nw26610 0.0 1018267
03:00−5w36650 0.0 1020248
06:00−7w37760 0.0 1019213
09:00−6w37790 0.0 1020314
12:00−2wsw47560 0.0 1019929
15:000sw6104620 0.0 10151282
18:00−1sw81564100 0.0 10111408
21:000wsw81773100 0.3 10061231
7 march, sun
sun700:000wsw81773100 0.0 10011145
03:000wsw81597100 1.2 9981013
06:00−3wnw51190100 1.6 996887
09:00−5w5145683 2.1 9971829
12:00−2w8155567 0.2 9962346
15:00−2wnw9155783 0.4 9952072
18:00−3wnw91686100 0.4 9961478
21:00−7nnw61264100 0.8 10001110
8 march, mon
mon800:00−7nw4107364 0.0 1003453
03:00−8wnw498051 0.0 1006400
06:00−7nnw499090 0.0 1007646
09:00−8n588394 0.1 1010749
12:00−7n5772100 0.0 1012797
15:00−6n5768100 0.0 1014740
18:00−7n5972100 0.0 1015661
21:00−8n5975100 0.0 1018682
9 march, tue
tue900:00−10n388024 0.0 1019492
03:00−11nnw278412 0.0 1020386
06:00−11nw22930 0.0 102170
09:00−10wsw228816 0.0 1021126
12:00−6sw357381 0.0 1020484
15:00−3sw596191 0.0 1019950
18:00−3wsw51063100 0.0 1016875
21:00−3sw51268100 0.0 1016696
10 march, wed
wed1000:00−4sw61290100 0.1 1015813
03:00−3wsw51192100 0.6 1014750
06:00−3wsw3895100 0.3 1013403
09:00−3nnw249599 0.6 1015248
12:00−4n448594 0.1 1016359
15:00−4n348196 0.1 1016475
18:00−5nne348599 0.1 1016416
21:00−8nne249384 0.1 1017171